N440WF KUKI-KSBP

Flight info

Callsign N440WF
Flight time N/A
Altitude 8500
Route DCT
Aircraft PZ04/L-G/S

Departure

Time 2026-04-21 13:53
Airport Ukiah Municipal Airport (KUKI)

Arrival

Time N/A
Airport San Luis County Regional Airport (KSBP)
Time Latitude Longitude Altitude Speed Heading
2026-04-21 13:49 39.12961 -123.20336 624 ft 0 kts 69°
2026-04-21 13:51 39.12964 -123.20323 629 ft 7 kts 92°
2026-04-21 13:51 39.12891 -123.20286 619 ft 23 kts 169°
2026-04-21 13:52 39.12802 -123.20249 614 ft 17 kts 135°
2026-04-21 13:52 39.12794 -123.20140 621 ft 16 kts 172°
2026-04-21 13:52 39.12130 -123.19966 924 ft 95 kts 171°
2026-04-21 13:52 39.11656 -123.19879 1102 ft 108 kts 174°
2026-04-21 13:53 39.10918 -123.19685 1387 ft 110 kts 154°
2026-04-21 13:53 39.10444 -123.18909 1535 ft 124 kts 101°
2026-04-21 13:53 39.10791 -123.17918 1522 ft 134 kts 28°
2026-04-21 13:53 39.11704 -123.17785 1589 ft 133 kts
2026-04-21 13:54 39.12635 -123.17707 1599 ft 128 kts 339°
2026-04-21 13:54 39.13384 -123.18367 1516 ft 140 kts 329°
2026-04-21 13:54 39.14284 -123.18782 1572 ft 129 kts 352°
2026-04-21 13:54 39.15158 -123.18899 1528 ft 126 kts 352°
2026-04-21 13:55 39.15771 -123.19511 1476 ft 122 kts 261°
2026-04-21 13:55 39.15111 -123.19635 1233 ft 125 kts 131°
2026-04-21 13:55 39.14605 -123.18790 1278 ft 116 kts 121°
2026-04-21 13:55 39.14531 -123.17787 1246 ft 122 kts 69°
2026-04-21 13:56 39.14774 -123.16762 1220 ft 121 kts 101°
2026-04-21 13:56 39.14199 -123.16104 1195 ft 115 kts 172°
2026-04-21 13:56 39.13485 -123.15940 1579 ft 96 kts 175°
2026-04-21 13:56 39.12768 -123.15881 1776 ft 103 kts 178°
2026-04-21 13:57 39.12007 -123.15876 1857 ft 117 kts 182°
2026-04-21 13:57 39.11164 -123.15929 1843 ft 122 kts 184°
2026-04-21 13:57 39.10311 -123.16031 1836 ft 123 kts 187°
2026-04-21 13:57 39.09456 -123.16084 1839 ft 123 kts 177°
2026-04-21 13:58 39.08627 -123.15890 1850 ft 122 kts 164°
2026-04-21 13:58 39.07844 -123.15444 1866 ft 123 kts 151°
2026-04-21 13:58 39.07118 -123.14858 1869 ft 123 kts 150°
2026-04-21 13:58 39.06369 -123.14320 1871 ft 123 kts 154°
2026-04-21 13:59 39.05596 -123.13867 1867 ft 123 kts 159°
2026-04-21 13:59 39.04788 -123.13491 1866 ft 123 kts 163°
2026-04-21 13:59 39.03956 -123.13197 1864 ft 123 kts 167°
2026-04-21 13:59 39.03135 -123.12933 1870 ft 123 kts 167°
2026-04-21 14:00 39.02301 -123.12668 1869 ft 123 kts 167°
2026-04-21 14:00 39.01479 -123.12359 1875 ft 123 kts 162°
2026-04-21 14:00 39.00671 -123.11974 1880 ft 123 kts 160°
2026-04-21 14:00 38.99879 -123.11584 1881 ft 123 kts 160°
2026-04-21 14:01 38.99076 -123.11191 1881 ft 123 kts 160°
2026-04-21 14:01 38.98277 -123.10803 1880 ft 123 kts 160°
2026-04-21 14:01 38.97474 -123.10417 1879 ft 123 kts 161°
2026-04-21 14:01 38.96668 -123.10033 1877 ft 123 kts 161°
2026-04-21 14:02 38.95861 -123.09654 1874 ft 123 kts 161°
2026-04-21 14:02 38.95053 -123.09276 1874 ft 123 kts 161°
2026-04-21 14:02 38.94242 -123.08900 1868 ft 124 kts 161°
2026-04-21 14:03 38.92620 -123.08159 1871 ft 124 kts 161°
2026-04-21 14:03 38.91817 -123.07743 1870 ft 124 kts 155°
2026-04-21 14:03 38.91085 -123.07186 1883 ft 124 kts 146°
2026-04-21 14:03 38.90417 -123.06483 1884 ft 124 kts 137°
2026-04-21 14:04 38.89809 -123.05688 1888 ft 125 kts 138°
2026-04-21 14:04 38.89147 -123.04972 1898 ft 124 kts 144°
2026-04-21 14:04 38.88431 -123.04369 1889 ft 124 kts 151°
2026-04-21 14:04 38.87658 -123.03876 1897 ft 124 kts 158°
2026-04-21 14:05 38.86857 -123.03458 1910 ft 124 kts 159°
2026-04-21 14:05 38.86053 -123.03041 1909 ft 124 kts 159°
2026-04-21 14:05 38.85252 -123.02628 1923 ft 124 kts 159°
2026-04-21 14:05 38.84449 -123.02217 1923 ft 124 kts 159°
2026-04-21 14:06 38.83654 -123.01813 1920 ft 124 kts 160°
2026-04-21 14:06 38.82850 -123.01406 1921 ft 125 kts 160°
2026-04-21 14:06 38.82038 -123.00997 1925 ft 124 kts 160°
2026-04-21 14:06 38.81233 -123.00598 1927 ft 124 kts 160°
2026-04-21 14:07 38.80427 -123.00213 1926 ft 124 kts 161°
2026-04-21 14:07 38.79627 -122.99842 1925 ft 124 kts 161°
2026-04-21 14:07 38.78808 -122.99474 1924 ft 125 kts 162°
2026-04-21 14:07 38.77987 -122.99116 1922 ft 125 kts 162°
2026-04-21 14:08 38.77163 -122.98766 1922 ft 125 kts 163°
2026-04-21 14:08 38.76340 -122.98425 1921 ft 124 kts 163°
2026-04-21 14:08 38.75515 -122.98095 1920 ft 124 kts 164°
2026-04-21 14:08 38.74695 -122.97776 1919 ft 124 kts 164°
2026-04-21 14:09 38.73863 -122.97459 1905 ft 125 kts 165°
2026-04-21 14:09 38.73023 -122.97148 1911 ft 125 kts 165°
2026-04-21 14:09 38.72191 -122.96850 1905 ft 125 kts 165°
2026-04-21 14:09 38.71345 -122.96558 1907 ft 125 kts 166°
2026-04-21 14:10 38.70499 -122.96277 1905 ft 125 kts 167°
2026-04-21 14:10 38.69655 -122.96008 1915 ft 125 kts 167°
2026-04-21 14:10 38.68817 -122.95751 1913 ft 125 kts 168°
2026-04-21 14:10 38.67967 -122.95500 1913 ft 125 kts 168°
2026-04-21 14:11 38.67116 -122.95258 1914 ft 125 kts 168°
2026-04-21 14:11 38.66267 -122.95025 1912 ft 125 kts 169°
2026-04-21 14:11 38.65419 -122.94803 1912 ft 125 kts 169°
2026-04-21 14:11 38.64561 -122.94589 1906 ft 125 kts 170°
2026-04-21 14:12 38.63699 -122.94386 1905 ft 126 kts 170°
2026-04-21 14:12 38.62826 -122.94191 1904 ft 127 kts 171°
2026-04-21 14:12 38.61966 -122.94009 1903 ft 127 kts 172°
2026-04-21 14:12 38.61092 -122.93834 1897 ft 127 kts 172°
2026-04-21 14:13 38.60214 -122.93668 1904 ft 127 kts 173°
2026-04-21 14:13 38.59338 -122.93513 1902 ft 127 kts 173°
2026-04-21 14:13 38.58469 -122.93368 1903 ft 127 kts 174°
2026-04-21 14:13 38.57592 -122.93231 1903 ft 127 kts 174°
2026-04-21 14:14 38.56711 -122.93104 1903 ft 127 kts 174°
2026-04-21 14:14 38.55830 -122.92987 1903 ft 127 kts 175°
2026-04-21 14:14 38.54959 -122.92881 1894 ft 127 kts 175°
2026-04-21 14:14 38.54075 -122.92781 1902 ft 127 kts 176°
2026-04-21 14:15 38.53190 -122.92691 1906 ft 127 kts 176°
2026-04-21 14:15 38.52307 -122.92611 1907 ft 127 kts 177°
2026-04-21 14:15 38.51423 -122.92541 1903 ft 127 kts 178°
2026-04-21 14:15 38.50538 -122.92481 1907 ft 128 kts 178°
2026-04-21 14:16 38.49658 -122.92431 1910 ft 127 kts 179°
2026-04-21 14:16 38.48773 -122.92391 1907 ft 127 kts 179°
2026-04-21 14:16 38.47887 -122.92362 1912 ft 127 kts 180°
2026-04-21 14:16 38.46999 -122.92344 1914 ft 128 kts 180°
2026-04-21 14:17 38.46118 -122.92335 1915 ft 127 kts 180°
2026-04-21 14:17 38.45228 -122.92337 1905 ft 128 kts 181°
2026-04-21 14:17 38.44341 -122.92350 1914 ft 128 kts 181°
2026-04-21 14:17 38.43452 -122.92373 1915 ft 127 kts 182°
2026-04-21 14:18 38.42564 -122.92405 1917 ft 127 kts 182°
2026-04-21 14:18 38.41686 -122.92446 1918 ft 127 kts 183°
2026-04-21 14:18 38.40802 -122.92498 1919 ft 127 kts 184°
2026-04-21 14:18 38.39928 -122.92559 1920 ft 127 kts 184°
2026-04-21 14:19 38.39042 -122.92632 1922 ft 127 kts 185°
2026-04-21 14:19 38.38161 -122.92715 1922 ft 127 kts 185°
2026-04-21 14:19 38.37276 -122.92809 1922 ft 127 kts 186°
2026-04-21 14:19 38.36390 -122.92915 1923 ft 127 kts 186°
2026-04-21 14:20 38.35517 -122.93028 1924 ft 128 kts 187°
2026-04-21 14:20 38.34621 -122.93155 1930 ft 128 kts 187°
2026-04-21 14:20 38.33746 -122.93290 1930 ft 127 kts 188°
2026-04-21 14:20 38.32863 -122.93437 1929 ft 127 kts 188°
2026-04-21 14:21 38.31987 -122.93445 1941 ft 126 kts 168°
2026-04-21 14:21 38.31221 -122.92958 1958 ft 125 kts 140°
2026-04-21 14:21 38.30732 -122.92062 1975 ft 124 kts 111°
2026-04-21 14:21 38.30649 -122.90979 1992 ft 124 kts 82°
2026-04-21 14:22 38.30987 -122.89988 2008 ft 125 kts 53°
2026-04-21 14:22 38.31670 -122.89316 2023 ft 125 kts 25°
2026-04-21 14:22 38.32519 -122.89065 2037 ft 126 kts 10°
2026-04-21 14:22 38.33393 -122.88884 2034 ft 127 kts 11°
2026-04-21 14:23 38.34266 -122.88691 2036 ft 127 kts 12°
2026-04-21 14:23 38.35114 -122.88435 2042 ft 127 kts 17°
2026-04-21 14:23 38.35950 -122.88086 2041 ft 126 kts 22°
2026-04-21 14:23 38.36762 -122.87646 2041 ft 126 kts 27°
2026-04-21 14:24 38.37540 -122.87122 2043 ft 127 kts 32°
2026-04-21 14:24 38.38280 -122.86514 2047 ft 126 kts 36°
2026-04-21 14:24 38.38966 -122.85840 2048 ft 126 kts 41°
2026-04-21 14:24 38.39614 -122.85085 2052 ft 126 kts 46°
2026-04-21 14:25 38.40206 -122.84264 2054 ft 126 kts 51°
2026-04-21 14:25 38.40741 -122.83379 2057 ft 126 kts 56°
2026-04-21 14:25 38.41214 -122.82439 2060 ft 126 kts 61°
2026-04-21 14:25 38.41617 -122.81459 2062 ft 124 kts 66°
2026-04-21 14:26 38.41948 -122.80450 2062 ft 125 kts 71°
2026-04-21 14:26 38.42213 -122.79391 2064 ft 125 kts 76°
2026-04-21 14:26 38.42404 -122.78300 2065 ft 126 kts 81°
2026-04-21 14:26 38.42519 -122.77189 2068 ft 126 kts 86°
2026-04-21 14:27 38.42608 -122.76080 2076 ft 126 kts 81°
2026-04-21 14:27 38.42840 -122.75005 2088 ft 126 kts 70°
2026-04-21 14:27 38.43224 -122.74004 2100 ft 125 kts 60°
2026-04-21 14:27 38.43737 -122.73120 2114 ft 124 kts 49°
2026-04-21 14:28 38.43569 -122.73382 1471 ft 86 kts 214°
2026-04-21 14:28 38.43132 -122.73791 1149 ft 76 kts 220°
2026-04-21 14:28 38.42891 -122.74190 908 ft 54 kts 244°
2026-04-21 14:28 38.43028 -122.74585 827 ft 47 kts 322°
2026-04-21 14:29 38.43341 -122.74806 747 ft 59 kts 328°
2026-04-21 14:29 38.43879 -122.75150 744 ft 107 kts 338°
2026-04-21 14:29 38.44613 -122.75453 951 ft 114 kts 343°
2026-04-21 14:29 38.45416 -122.75742 1021 ft 122 kts 347°
2026-04-21 14:30 38.46243 -122.75941 1157 ft 120 kts 346°
2026-04-21 14:30 38.47019 -122.76341 1250 ft 121 kts 335°
2026-04-21 14:30 38.47422 -122.76572 1392 ft 45 kts 347°
2026-04-21 14:30 38.47927 -122.76632 711 ft 80 kts 322°
2026-04-21 14:31 38.48384 -122.76858 401 ft 67 kts 330°
2026-04-21 14:31 38.48871 -122.77244 557 ft 92 kts 309°
2026-04-21 14:31 38.49327 -122.77913 795 ft 114 kts 306°
2026-04-21 14:31 38.49561 -122.78795 1225 ft 107 kts 290°
2026-04-21 14:32 38.50108 -122.79536 1386 ft 117 kts 328°
2026-04-21 14:32 38.50746 -122.80140 1557 ft 127 kts 302°
2026-04-21 14:32 38.50807 -122.81219 1637 ft 112 kts 252°
2026-04-21 14:32 38.50931 -122.82020 1018 ft 77 kts 265°
2026-04-21 14:33 38.51132 -122.82230 143 ft 59 kts 30°
2026-04-21 14:33 38.51154 -122.82204 120 ft 9 kts 256°